EW8345 Weather Reports


time (UTC)temp
C
wind
direction
speed
KPH
gust
KPH
rain 1hr
cm
rain 24hr
cm
rain mn
cm
humidity
%
barometer
mb
20260906230048 23 170 3.2 6.4 0.00 0.08 0.00 21 1024.1
20260906224545 24 175 6.4 12.9 0.00 0.08 0.00 20 1024.1
20260906223046 25 150 6.4 14.5 0.00 0.08 0.00 20 1024.1
20260906221543 25 136 6.4 11.3 0.00 0.08 0.00 19 1024.3
20260906220040 25 153 8.0 12.9 0.00 0.08 0.00 18 1024.3
20260906214539 25 172 8.0 19.3 0.00 0.08 0.00 17 1024.4
20260906213037 27 116 3.2 14.5 0.00 0.08 0.00 14 1024.5
20260906211534 26 140 4.8 12.9 0.00 0.08 0.00 17 1024.8
20260906210033 24 178 3.2 14.5 0.00 0.08 0.00 22 1024.9
20260906204532 24 163 4.8 9.7 0.00 0.08 0.00 22 1025.0
20260906203029 25 153 3.2 12.9 0.00 0.08 0.00 24 1025.0
20260906201527 25 327 1.6 6.4 0.00 0.08 0.00 26 1025.1
20260906200027 26 50 3.2 12.9 0.00 0.08 0.00 25 1025.3
20260906194524 23 133 0.0 9.7 0.00 0.08 0.00 28 1025.4
20260906193022 24 296 3.2 12.9 0.00 0.08 0.00 27 1025.5
20260906191521 25 163 3.2 9.7 0.00 0.08 0.00 27 1025.7
20260906190019 23 323 1.6 9.7 0.00 0.08 0.00 30 1025.8
20260906184522 25 267 3.2 8.0 0.00 0.08 0.00 27 1025.9
20260906183023 25 176 3.2 11.3 0.00 0.08 0.00 28 1026.2
20260906181512 23 202 1.6 6.4 0.00 0.08 0.00 31 1026.4
20260906180008 22 204 1.6 6.4 0.00 0.08 0.00 30 1026.7
20260906174507 21 319 0.0 4.8 0.00 0.08 0.00 33 1027.0
20260906173003 22 23 1.6 6.4 0.00 0.08 0.00 34 1027.2
20260906171501 21 24 0.0 8.0 0.00 0.08 0.00 37 1027.4
20260906170107 20 331 1.6 8.0 0.00 0.08 0.00 34 1027.5
20260906164557 19 15 4.8 12.9 0.00 0.08 0.00 35 1027.7
20260906163055 18 317 3.2 9.7 0.00 0.08 0.00 41 1027.8
20260906161552 18 333 1.6 8.0 0.00 0.08 0.00 42 1027.9
20260906160050 17 315 1.6 6.4 0.00 0.08 0.00 45 1027.9
20260906154546 16 147 1.6 3.2 0.00 0.08 0.00 55 1027.8
20260906153042 15 146 0.0 4.8 0.00 0.08 0.00 59 1027.8
20260906151548 14 145 0.0 0.0 0.00 0.08 0.00 64 1027.9
20260906150035 13 145 0.0 3.2 0.00 0.08 0.00 71 1028.0
20260906144533 12 145 1.6 4.8 0.00 0.08 0.00 73 1028.0
20260906143029 11 144 0.0 0.0 0.00 0.08 0.00 79 1028.0
20260906141528 10 144 0.0 3.2 0.00 0.08 0.00 82 1028.1
20260906140027 8 144 0.0 1.6 0.00 0.08 0.00 87 1028.1
20260906134526 7 144 0.0 4.8 0.00 0.08 0.00 88 1028.1
20260906133020 7 144 0.0 4.8 0.00 0.08 0.00 89 1027.8
20260906131520 7 149 0.0 3.2 0.00 0.08 0.00 89 1027.8
20260906130019 6 149 0.0 4.8 0.00 0.08 0.00 89 1027.7
20260906124518 7 152 0.0 3.2 0.00 0.08 0.00 89 1027.6
20260906123029 6 152 0.0 1.6 0.00 0.08 0.00 89 1027.5
20260906121515 7 152 0.0 3.2 0.00 0.08 0.00 89 1027.4
20260906120013 7 152 1.6 4.8 0.00 0.08 0.00 88 1027.6
20260906114513 7 153 0.0 8.0 0.00 0.08 0.00 88 1027.6
20260906113010 7 153 1.6 4.8 0.00 0.08 0.00 89 1027.6
20260906111508 7 153 0.0 0.0 0.00 0.08 0.00 88 1027.6
20260906110007 7 153 0.0 0.0 0.00 0.08 0.00 89 1027.6
20260906104511 7 153 0.0 3.2 0.00 0.08 0.00 89 1027.5
20260906103013 7 153 0.0 0.0 0.00 0.08 0.00 89 1027.6
20260906101505 7 153 0.0 0.0 0.00 0.08 0.00 88 1027.5
20260906100009 7 153 0.0 0.0 0.00 0.08 0.00 88 1027.4
20260906094504 8 153 1.6 4.8 0.00 0.08 0.00 87 1027.4
20260906093100 8 156 0.0 8.0 0.00 0.08 0.00 87 1027.5
20260906093001 8 156 1.6 8.0 0.00 0.08 0.00 87 1027.5
20260906091556 8 154 1.6 4.8 0.00 0.08 0.00 85 1027.5
20260906090056 8 156 0.0 4.8 0.00 0.08 0.00 87 1027.7
20260906084555 8 155 0.0 0.0 0.00 0.08 0.00 87 1027.7
20260906083052 8 171 0.0 4.8 0.00 0.08 0.00 86 1027.5
20260906081550 8 173 0.0 4.8 0.00 0.08 0.00 85 1027.6
20260906080051 9 173 0.0 4.8 0.00 0.08 0.00 85 1027.5
20260906074548 9 173 3.2 6.4 0.00 0.08 0.00 86 1027.7
20260906073045 8 171 0.0 1.6 0.00 0.08 0.00 86 1027.7
20260906071543 9 171 0.0 6.4 0.00 0.08 0.00 84 1027.7
20260906070042 8 172 3.2 6.4 0.00 0.08 0.00 85 1027.8
20260906064542 9 173 0.0 0.0 0.00 0.08 0.00 85 1027.8
20260906063037 9 173 0.0 0.0 0.00 0.08 0.00 84 1027.9
20260906061535 10 172 0.0 4.8 0.00 0.08 0.00 84 1027.9
20260906060034 9 172 0.0 0.0 0.00 0.08 0.08 85 1027.8
20260906054538 10 172 0.0 6.4 0.00 0.08 0.08 83 1027.9
20260906053032 10 162 1.6 6.4 0.00 0.08 0.08 83 1028.0
20260906051531 10 154 0.0 8.0 0.00 0.08 0.08 84 1028.0
20260906050030 11 147 4.8 11.3 0.00 0.08 0.08 80 1028.0
20260906044530 12 160 0.0 0.0 0.00 0.08 0.08 78 1028.1
20260906043029 12 159 0.0 8.0 0.03 0.08 0.08 77 1028.2
20260906041529 12 157 3.2 8.0 0.03 0.08 0.08 78 1028.2
20260906040028 12 180 6.4 11.3 0.03 0.08 0.08 78 1028.4
20260906034528 13 125 3.2 11.3 0.03 0.08 0.08 74 1028.4
20260906033027 15 153 9.7 17.7 0.00 0.05 0.05 64 1028.4
20260906031526 15 165 0.0 8.0 0.00 0.05 0.05 67 1027.9
20260906030027 14 165 1.6 11.3 0.00 0.05 0.05 65 1027.6
20260906024526 15 147 0.0 4.8 0.00 0.05 0.05 62 1027.3
20260906023027 15 149 1.6 12.9 0.00 0.05 0.05 65 1027.2
20260906021536 17 143 8.0 14.5 0.00 0.05 0.05 58 1027.3
20260906020025 16 177 4.8 16.1 0.00 0.05 0.05 56 1027.2
20260906014526 16 171 8.0 14.5 0.00 0.05 0.05 67 1026.8
20260906013034 17 328 0.0 0.0 0.00 0.05 0.05 59 1026.5
20260906011523 17 328 0.0 0.0 0.00 0.05 0.05 58 1026.5
20260906010023 17 328 0.0 4.8 0.00 0.05 0.05 55 1026.6
20260906004522 18 360 1.6 8.0 0.00 0.05 0.05 48 1026.6
20260906003022 18 140 0.0 8.0 0.00 0.05 0.05 56 1026.6
20260906001520 18 163 0.0 3.2 0.00 0.05 0.05 59 1026.5
20260906000022 19 161 3.2 9.7 0.00 0.05 0.05 53 1026.6
20260905234517 17 251 0.0 4.8 0.05 0.05 0.05 60 1026.6
20260905233019 16 334 0.0 4.8 0.05 0.05 0.05 70 1026.4
20260905231516 15 323 0.0 3.2 0.05 0.05 0.05 78 1026.5